Accueil
METAR-TAF:

METAR-TAF

Aéroports :

Chugiak, Alaska, États-Unis

latitude: 61-25N, longitude: 149-31W, altitude: 29 m

Observation

Le bulletin a été fait il y a 57 minutes, à 14:56 UTC
Vent 3 kt de sud
Température -5°C
Humidité 93%
Pression 1031 hPa
Visibilité: 12.9 km
Ciel couvert à une hauteur de 500 ft

METAR: PABV 201456Z AUTO 18003KT 8SM OVC005 M05/M06 A3046 RMK AO2 SLP323 T10501056 53014 FZRANO $

Heure: 06:53 (15:53 UTC)


TAF: absent

Observations et prévisions météorologiques de plus de 4000 aéroports (messages METAR et TAF).

Les stations disponibles sont représentées par des disques jaunes et rouges sur la carte.

Passer la souris dessus pour voir le nom de la station.

Cliquer dessus pour voir les observations et prévisions météorologiques.

Pour changer de carte: cliquez sur les boutons verts avec une croix noire pour zoomer, sur le bouton vert avec un tiret pour effectuer un zoom arrière, ou sur les flèches vertes pour les cartes adjacentes.


METAR-TAF: